Wind_Speed
7 6 9 10 10 9 10 11 12 11 11 10 8 8 9 9 8 7 5 6 5 7 6 5 5 4 2 1 2 4 5 10 17 21 20 17 21 19 17 16 11 6 4 4 1 4 4 4 3 4 6 3 0 1 1 0 2 4 2 2 3 3 5 7 8 8 9 11 12 10 7 9 10 3 1 2 8 9 8 8 7 6 5 2 3 4 12 16
7 7 8 10 9 9 10 11 11 10 10 9 8 8 8 9 10 8 6 6 5 6 5 6 7 8 7 5 3 2 3 7 17 20 17 19 20 17 17 15 12 7 5 5 4 5 2 1 1 4 5 2 1 0 1 0 2 3 3 3 3 6 6 7 8 9 10 11 14 13 7 6 10 8 4 6 11 9 11 11 7 8 8 6 3 6 13 13
6 7 8 9 9 9 10 10 9 9 8 7 7 7 7 9 11 10 7 6 5 4 1 1 3 8 9 8 6 4 5 3 14 16 15 20 19 17 17 15 12 9 6 6 6 5 4 3 2 3 3 1 1 1 1 1 2 2 3 4 5 8 8 7 7 9 11 12 13 12 7 7 8 6 5 8 13 13 12 11 4 7 8 5 7 10 13 12
7 8 8 8 8 9 9 8 8 8 7 6 7 6 5 6 9 10 7 4 4 5 7 9 8 2 5 8 7 4 7 4 8 12 15 20 18 16 17 15 13 11 7 5 4 4 4 2 2 3 3 1 1 1 1 3 3 2 2 5 7 8 8 7 8 9 10 10 10 11 8 8 6 5 7 9 12 12 10 12 10 13 13 2 10 10 12 11
8 9 9 9 8 8 8 7 7 6 6 5 5 5 4 5 7 8 7 3 2 5 9 11 14 13 6 2 4 3 6 3 5 12 17 19 17 15 16 15 14 11 8 5 4 4 5 4 3 2 3 2 2 1 2 5 3 3 1 5 8 7 7 8 8 8 8 10 9 10 8 7 7 7 9 9 9 11 11 11 10 12 13 1 9 10 11 10
8 8 8 8 7 7 6 6 6 6 5 5 4 4 4 4 5 6 8 6 0 4 6 7 9 11 11 7 4 2 3 1 6 14 17 18 15 14 15 13 14 12 9 7 6 5 4 5 4 2 3 2 4 4 4 4 3 3 2 5 6 6 8 8 8 6 7 10 10 9 8 7 10 10 7 7 11 13 11 11 11 11 11 4 6 9 9 9
8 8 7 6 5 5 5 5 6 5 4 4 4 4 4 4 5 7 9 9 3 5 6 2 3 4 4 5 5 5 5 5 10 17 18 17 13 13 14 13 14 11 9 9 8 6 5 6 4 4 4 2 4 5 4 3 1 2 3 6 6 5 7 7 6 6 6 8 9 8 7 9 12 9 6 8 11 11 12 13 12 11 9 4 4 7 8 9
7 7 6 5 5 5 5 5 5 4 3 4 4 4 4 4 4 7 10 9 6 3 7 4 2 3 2 2 0 6 9 7 15 19 18 15 12 11 12 12 13 10 8 10 10 8 6 6 7 5 3 3 4 4 4 4 1 2 6 6 6 6 5 6 5 4 6 6 6 8 10 12 8 7 8 9 9 12 12 11 10 8 6 4 4 6 8 10
6 6 5 5 5 5 6 5 4 3 4 4 4 3 3 3 4 7 10 9 10 9 4 1 2 3 2 4 5 4 8 9 14 18 17 14 10 10 11 10 11 9 7 9 11 10 6 6 7 6 3 4 3 3 4 5 2 4 6 6 8 7 5 5 4 4 5 3 6 10 14 12 5 4 5 7 12 11 9 9 8 7 6 5 5 7 8 11
6 5 5 5 6 8 7 6 5 4 4 4 4 3 2 3 4 7 10 12 17 17 13 9 7 4 2 4 2 4 7 10 12 16 15 12 9 10 10 8 9 9 7 9 11 11 7 6 6 4 2 2 2 2 2 3 2 2 5 5 9 6 4 2 4 8 6 3 7 11 16 13 4 2 4 11 11 9 9 9 8 7 8 8 7 8 10 12
6 5 6 7 9 9 8 6 5 4 4 4 4 4 3 3 3 4 7 11 11 10 9 8 9 9 9 8 6 6 8 10 12 16 15 10 9 11 10 8 10 9 7 8 9 8 6 6 5 3 1 2 3 1 2 1 3 5 4 5 7 2 4 2 6 10 7 4 8 13 16 12 0 1 6 10 10 12 12 9 10 9 8 9 9 10 11 12
6 7 8 9 9 9 7 5 4 3 3 4 6 6 5 4 3 3 4 4 4 5 5 4 3 4 8 12 9 5 7 9 11 16 15 9 8 12 11 7 9 9 7 7 7 6 5 3 5 6 3 4 4 1 3 0 5 4 3 3 3 5 4 5 8 10 9 4 10 15 11 4 3 6 11 11 11 15 13 8 10 9 9 9 9 10 10 12
7 7 8 8 8 8 6 5 4 3 4 6 7 6 6 5 4 3 3 3 4 7 8 7 6 2 3 7 5 4 8 10 11 15 15 9 5 8 11 8 8 9 7 8 6 5 6 3 5 8 3 5 3 2 1 2 5 3 2 2 3 1 2 5 6 10 10 3 8 13 5 4 7 11 12 12 13 15 12 9 9 8 8 8 9 9 10 12
7 8 7 7 8 7 6 5 4 5 7 8 7 6 6 5 5 5 4 4 3 4 6 8 7 4 4 5 2 6 12 11 13 18 17 14 6 4 7 6 7 9 8 8 6 6 6 2 3 6 2 4 3 1 2 3 3 4 2 2 5 5 3 7 5 8 10 3 8 10 3 7 9 12 14 14 14 14 10 10 9 8 8 8 9 9 10 12
8 7 6 7 6 4 4 5 6 7 7 5 3 4 5 7 8 7 7 6 5 2 1 3 3 2 4 5 1 6 13 13 16 18 17 17 11 4 5 3 4 7 8 7 6 6 3 1 2 3 4 2 1 2 1 2 1 6 4 3 5 5 7 7 4 6 10 8 10 8 4 7 7 12 16 15 15 13 10 10 9 8 9 9 9 9 10 11
7 6 6 7 6 6 8 11 12 11 10 7 4 1 1 3 5 6 6 7 8 5 2 3 5 5 2 4 2 5 11 14 16 15 15 16 10 7 7 2 1 2 4 5 5 4 2 2 2 3 5 5 5 5 2 2 4 6 6 6 6 5 7 6 3 5 9 11 10 8 5 7 7 13 16 16 15 12 10 10 9 9 9 9 8 9 9 9
7 7 6 7 9 12 14 16 17 16 16 16 16 11 6 3 0 2 4 3 6 7 6 6 6 3 4 4 4 6 10 13 15 14 15 14 7 8 8 1 1 2 2 2 3 2 0 1 1 1 5 8 9 8 5 6 6 5 6 7 7 6 6 7 3 4 10 12 11 9 6 8 8 13 15 15 13 11 11 10 9 9 8 8 8 8 8 8
7 6 6 5 8 9 9 11 11 12 12 12 14 16 17 15 11 9 7 2 1 2 3 7 6 1 4 6 5 8 12 13 13 15 18 13 6 7 7 4 1 4 5 2 2 3 2 0 0 2 7 9 9 9 7 6 7 7 8 7 7 7 5 8 8 5 11 12 11 9 7 8 8 12 14 14 13 12 11 10 9 9 8 8 8 8 8 7
6 6 6 4 5 5 5 4 4 4 2 1 3 5 8 11 15 19 21 12 4 1 2 6 6 1 2 7 8 13 13 10 10 16 20 16 8 7 5 4 1 1 3 2 4 6 3 2 4 5 8 9 9 8 5 6 7 8 9 6 8 10 6 9 10 5 7 12 10 8 8 7 8 11 12 12 11 10 10 10 9 8 8 8 8 8 7 6
5 6 6 5 3 3 4 5 5 5 5 5 4 3 2 2 4 9 15 14 8 5 5 5 6 3 2 6 11 16 10 4 7 17 22 18 10 7 6 4 0 4 2 0 4 4 2 6 7 7 7 7 7 6 6 7 7 8 8 6 8 9 8 13 12 3 3 9 8 7 8 6 9 11 11 9 9 11 11 10 10 8 9 8 8 7 5 5
4 6 6 6 5 3 1 3 6 7 7 6 4 3 1 1 2 3 3 7 7 5 6 4 3 4 4 5 10 15 6 2 6 18 25 21 8 5 7 7 2 5 4 1 1 0 2 8 7 7 6 5 4 4 6 8 8 7 6 7 7 6 10 15 10 0 2 7 7 8 9 4 10 10 10 9 10 12 11 10 10 9 9 7 7 6 4 4
4 5 6 6 5 4 3 1 1 2 3 2 1 1 3 2 4 7 3 5 6 3 4 2 1 5 4 3 8 12 5 2 8 18 27 24 11 4 5 5 5 6 4 0 2 1 6 8 6 6 5 5 4 3 7 8 7 6 5 7 7 7 11 11 5 4 7 7 6 10 9 3 11 10 10 10 9 10 10 10 10 9 9 6 5 5 6 7
4 5 5 6 5 4 4 3 3 3 2 3 5 5 6 7 8 5 1 3 5 2 3 5 5 8 6 4 9 12 6 7 9 14 23 20 10 5 5 5 8 7 8 7 4 4 5 5 5 5 5 7 4 3 10 9 4 3 5 6 7 9 11 7 6 12 13 6 4 10 9 3 10 9 11 9 8 10 10 10 9 8 7 5 5 6 7 10
4 4 5 6 4 3 4 5 4 5 7 9 10 10 9 8 6 1 2 1 3 2 2 3 4 6 6 4 9 9 6 7 7 11 17 15 7 4 3 4 5 6 8 9 9 9 6 4 5 5 5 6 6 7 11 9 5 5 4 6 10 12 12 11 12 16 12 2 1 9 8 3 7 6 8 7 8 10 9 8 8 6 5 3 6 8 10 10
4 4 5 5 5 2 2 4 5 7 10 9 9 10 8 5 2 2 1 1 2 3 2 1 1 4 4 4 7 5 1 4 6 9 11 11 8 4 1 1 2 6 4 3 6 8 6 3 3 5 4 5 8 7 9 8 8 4 3 7 14 15 15 15 14 14 8 0 4 6 8 1 6 7 6 5 6 7 7 6 5 4 3 5 7 9 10 10
4 5 5 5 5 3 0 1 4 8 7 5 6 7 4 3 1 2 2 3 1 2 1 0 0 4 5 7 9 3 2 2 4 7 8 8 6 3 0 2 1 4 3 2 3 3 4 1 2 4 4 8 9 6 7 8 7 4 4 11 17 15 14 14 13 9 6 5 4 4 5 6 1 7 7 6 7 7 6 4 3 2 3 6 8 8 9 10
5 5 5 5 5 4 2 1 6 5 2 4 6 4 3 2 2 2 2 4 1 1 3 3 1 4 5 9 10 1 0 5 3 6 10 9 6 4 1 4 2 3 2 0 1 2 2 2 2 4 4 8 9 6 7 6 5 5 9 16 18 15 14 11 10 7 5 8 4 2 2 8 5 4 8 8 8 7 5 3 2 3 6 8 8 9 10 13
5 6 6 5 4 3 2 3 6 2 1 5 5 2 2 1 0 1 3 2 1 1 1 3 1 4 4 6 10 5 1 7 4 7 12 9 6 3 1 5 3 4 2 2 1 3 2 4 4 5 5 7 8 8 6 4 4 6 12 18 16 15 14 10 7 7 5 6 3 1 6 8 6 2 9 10 6 5 3 1 1 4 7 8 10 11 13 15
6 6 6 4 2 2 2 3 4 3 4 6 4 2 2 1 1 2 3 2 1 1 0 2 0 3 4 3 7 7 3 4 3 7 10 5 6 4 2 3 1 3 2 2 3 3 2 3 2 4 5 6 8 9 4 3 4 9 16 18 16 13 11 8 6 5 4 4 2 7 10 7 7 3 5 9 4 1 2 1 2 4 6 8 12 13 13 14
7 6 6 3 1 1 2 2 4 6 7 6 5 4 2 1 2 3 3 2 1 1 0 3 1 4 7 2 4 7 6 5 3 6 5 4 6 5 2 1 1 1 0 4 7 4 4 1 1 2 4 4 9 8 2 4 8 12 15 16 12 8 7 5 5 4 4 3 5 8 10 9 9 5 1 3 1 0 3 3 3 5 8 10 13 14 15 16
9 8 8 4 2 2 0 2 5 7 6 6 6 3 1 1 2 3 2 0 1 1 0 2 2 3 6 3 3 6 5 4 5 7 6 5 7 8 4 1 2 3 2 3 5 5 5 3 1 2 2 5 10 7 3 6 10 11 10 11 8 2 4 3 3 2 4 6 7 9 13 12 9 4 2 3 3 3 2 3 5 9 11 13 14 14 16 18
13 12 10 7 2 1 1 5 6 6 6 6 4 1 2 2 2 1 0 0 1 1 1 1 2 2 3 2 4 6 4 3 6 6 5 5 6 8 8 6 4 2 2 4 2 3 4 2 3 3 0 5 9 7 1 5 6 8 9 9 8 5 2 3 4 4 5 7 7 13 16 9 8 4 3 5 5 5 3 2 6 10 13 15 16 15 14 14
14 13 10 8 5 4 6 7 7 6 6 4 2 2 2 3 2 1 2 1 1 2 1 1 2 3 3 1 3 5 2 2 5 5 3 4 5 6 9 10 8 4 1 3 5 3 1 3 3 2 1 4 7 6 3 2 5 8 9 9 8 7 7 6 7 7 7 7 8 15 13 7 8 4 4 4 4 5 3 1 6 9 11 15 17 17 16 14
10 12 9 7 7 7 7 6 5 5 5 3 3 2 3 3 0 1 0 1 2 0 0 1 2 2 1 1 2 3 1 1 4 6 4 3 4 5 6 9 10 6 3 2 3 4 2 1 2 2 2 4 5 4 3 5 4 5 6 7 6 5 4 5 6 7 9 11 12 12 8 6 8 2 5 3 3 4 3 4 7 8 9 13 17 18 17 15
6 8 9 8 7 5 4 4 4 5 3 2 3 3 3 1 2 1 1 2 2 1 1 1 2 3 1 3 2 1 1 1 2 4 5 4 4 4 3 6 10 7 4 2 2 2 4 1 3 3 3 4 3 2 3 5 2 2 4 5 6 4 2 5 7 9 10 11 11 7 5 6 4 4 5 4 4 4 6 6 7 9 10 15 18 17 16 16
3 5 8 10 8 4 2 3 4 3 2 3 3 3 1 2 1 1 1 1 0 0 2 2 2 2 1 2 2 2 0 1 2 1 3 4 3 4 3 3 6 7 4 3 2 2 4 1 5 4 3 4 3 2 2 4 3 3 4 5 6 3 3 5 8 9 9 9 7 6 8 8 4 3 6 5 5 6 8 8 9 10 15 18 17 15 15 15
2 1 5 10 8 3 1 2 4 3 2 3 2 1 1 1 1 2 2 0 0 0 2 2 1 2 1 1 1 2 2 0 1 2 1 1 2 3 3 2 2 5 4 2 1 1 4 4 4 4 2 3 1 3 6 4 4 3 3 6 6 1 3 4 6 6 7 7 6 6 10 11 8 3 2 2 9 12 11 10 10 14 18 19 18 18 16 15
1 1 2 9 9 3 1 2 3 2 2 1 1 1 1 1 1 2 1 1 1 2 2 1 1 1 1 2 1 2 4 2 1 2 1 0 1 2 3 2 2 3 3 2 1 2 2 4 2 2 2 4 4 1 3 4 5 4 3 3 4 1 2 4 6 6 7 9 8 8 10 10 7 5 5 12 16 14 11 9 12 18 20 18 20 20 18 16
1 3 1 7 8 2 2 3 3 2 3 2 2 2 1 1 2 1 1 1 2 2 1 1 1 0 0 2 2 1 2 3 3 2 1 1 1 1 2 1 1 2 2 3 3 1 2 2 1 2 3 6 5 3 1 3 5 5 4 2 2 1 3 3 3 4 6 8 8 10 12 7 3 5 9 14 13 9 9 10 14 19 19 19 19 16 15 15
2 2 1 7 6 4 5 2 1 1 1 0 1 2 1 1 2 1 1 1 2 1 1 1 1 0 1 1 1 1 1 2 2 2 1 1 1 1 2 1 1 2 2 2 3 2 1 2 2 2 3 4 2 1 3 3 2 1 0 3 3 2 2 2 2 2 3 6 7 11 12 7 3 5 6 11 11 6 9 14 16 19 19 19 17 15 14 13
2 2 1 8 4 5 4 3 2 2 2 2 3 3 1 1 3 2 1 1 2 1 1 1 1 1 1 0 0 1 1 1 1 1 1 1 1 1 2 2 3 2 2 3 2 2 2 2 4 6 4 1 2 4 4 3 2 2 2 2 2 2 2 4 3 1 1 4 5 9 12 10 6 3 3 10 15 13 15 18 19 19 20 18 16 15 14 13
3 2 2 9 2 5 1 3 3 2 1 2 2 3 1 1 2 2 2 2 1 1 0 1 2 1 1 1 0 1 1 2 1 1 0 1 2 2 2 2 3 2 2 2 1 2 2 2 5 7 5 2 5 5 4 4 4 3 2 0 1 0 1 4 5 4 3 5 6 7 11 10 3 2 4 13 18 19 19 19 20 20 19 17 16 15 14 13
2 1 4 9 2 5 1 2 2 2 3 2 1 2 2 0 2 2 1 2 1 1 1 1 1 1 1 1 0 1 1 2 1 0 0 1 2 3 2 1 2 2 2 1 1 1 1 2 4 6 3 4 6 4 3 3 2 1 2 3 3 2 1 3 4 5 5 6 7 7 9 8 1 1 9 16 20 21 18 18 20 19 16 15 15 15 13 12
1 1 3 7 2 3 2 1 3 3 4 3 2 3 1 1 1 1 2 2 1 1 1 2 1 1 2 1 0 1 0 1 1 0 0 1 1 2 1 1 2 2 1 1 2 1 1 1 3 6 4 0 1 1 2 1 2 3 3 4 4 4 3 3 2 1 3 6 7 7 9 9 6 10 15 19 21 21 17 16 18 17 15 14 13 13 12 12
0 1 1 4 5 2 1 1 2 5 5 4 4 4 2 2 1 1 1 1 1 2 0 2 1 1 2 1 1 1 1 1 1 1 1 0 2 2 1 2 3 2 2 4 4 2 2 3 3 4 6 6 5 4 4 3 4 3 3 6 6 6 7 3 3 3 4 6 7 9 12 13 15 17 18 20 21 18 16 17 17 16 14 13 12 11 11 12
1 1 1 1 4 4 2 1 1 5 6 5 4 3 2 3 2 0 1 0 1 0 0 2 1 1 2 2 3 3 3 2 0 1 1 2 2 2 3 4 3 1 2 3 3 2 2 3 4 4 4 6 8 9 9 8 8 8 5 5 7 6 7 4 3 5 7 8 9 12 14 19 23 21 20 21 19 16 17 19 18 16 14 14 12 11 11 12
2 1 1 0 1 2 3 2 2 4 4 3 3 4 4 4 4 3 1 1 1 1 0 2 2 3 3 2 3 3 3 3 2 0 1 1 2 3 3 4 3 3 2 1 1 1 3 4 3 3 7 10 11 14 14 11 10 12 11 6 6 8 8 6 7 9 9 8 10 12 14 19 24 23 22 22 17 16 18 20 18 16 14 13 12 10 12 14
1 0 1 1 1 1 2 1 2 3 3 1 1 3 5 5 4 3 2 1 0 2 2 1 3 5 4 2 2 2 3 4 4 2 1 1 1 3 4 3 3 6 5 3 2 1 4 3 1 0 8 12 14 16 15 12 11 11 12 11 8 8 11 11 12 13 9 8 13 17 20 22 22 22 22 19 15 17 20 19 17 15 15 13 11 11 13 16
1 2 2 1 1 2 2 1 2 4 4 3 1 3 5 7 6 2 1 2 2 3 2 2 4 6 5 4 3 2 3 2 2 2 2 2 2 2 3 2 3 6 5 3 2 1 3 2 2 1 8 13 14 13 11 10 11 11 12 13 13 11 12 13 14 14 13 16 19 22 25 24 21 19 18 15 14 16 18 17 15 16 16 14 11 11 14 16
0 1 2 1 2 3 2 1 1 2 2 1 2 3 4 6 6 3 1 2 2 4 4 3 3 4 4 4 5 4 2 2 2 1 3 3 2 3 3 1 3 5 4 2 2 1 2 1 3 0 7 11 8 6 6 8 10 12 13 13 13 13 13 13 13 13 13 17 19 20 22 19 15 13 14 14 14 15 17 17 16 14 14 13 10 11 15 17
1 1 2 2 2 2 0 1 0 1 2 2 2 3 3 6 7 5 3 0 1 2 4 3 3 5 2 3 7 5 2 3 2 1 2 2 1 1 2 0 2 5 4 2 2 2 2 1 0 1 6 7 2 4 6 9 9 10 13 13 13 12 10 10 10 10 11 13 16 16 14 12 10 11 14 15 15 17 18 17 15 14 13 11 9 11 15 16
2 1 1 1 1 1 1 1 1 2 1 1 1 3 2 2 5 5 2 2 1 1 1 1 2 3 2 4 5 2 4 4 3 3 2 0 1 1 0 1 1 2 4 4 2 1 1 3 2 1 5 5 1 3 10 10 6 5 5 8 12 13 11 11 11 12 14 13 12 11 11 12 13 15 17 17 16 17 17 14 14 15 13 9 8 12 15 15
Wind_Direction
69 50 46 53 57 60 65 69 74 78 77 70 58 51 54 52 50 52 67 93 137 166 183 200 212 228 244 278 29 50 41 52 49 45 47 14 349 349 351 359 0 1 357 345 284 250 230 209 206 223 235 213 211 51 149 45 323 275 283 307 328 2 13 4 337 333 323 320 331 344 10 340 325 351 64 287 257 256 262 248 234 235 234 239 38 95 133 140
65 51 49 51 55 57 63 67 74 77 74 70 58 57 62 58 52 57 80 96 129 167 197 226 233 239 244 250 265 333 341 44 50 45 32 1 353 359 0 8 9 5 356 339 325 306 311 43 244 231 243 218 119 102 177 133 307 306 331 305 356 23 360 342 330 331 328 326 327 334 8 348 323 339 4 311 303 296 283 274 229 230 235 189 149 155 151 151
64 53 53 54 58 59 64 69 72 74 72 67 59 66 74 64 57 61 84 102 116 141 121 345 252 242 241 248 255 279 286 354 43 33 9 356 357 2 4 11 9 7 8 346 342 333 345 15 311 265 272 240 93 316 255 11 324 354 343 309 27 19 343 341 345 341 336 332 325 331 358 332 320 335 330 307 311 308 303 320 327 289 290 187 167 165 161 165
63 51 52 56 61 62 65 70 72 72 70 63 60 72 81 67 58 60 75 99 113 106 77 62 56 49 231 240 246 263 272 276 35 7 349 352 356 3 6 12 8 6 9 344 339 320 303 309 296 306 301 265 73 299 326 34 356 340 323 334 15 359 339 4 7 352 341 335 326 325 327 323 336 333 304 302 309 310 325 359 9 338 335 153 163 166 165 168
56 49 49 54 58 64 66 69 72 69 64 57 58 72 83 68 52 50 56 61 144 116 85 73 63 56 65 186 212 225 262 253 27 346 340 349 353 0 3 9 9 5 1 338 323 302 281 283 284 291 296 315 20 315 42 49 349 296 344 8 8 350 339 358 6 8 351 330 320 326 327 332 330 298 292 302 306 314 335 9 15 355 348 19 161 163 164 165
53 51 53 55 55 61 63 68 70 65 59 53 62 75 78 63 47 42 38 32 190 165 110 87 68 53 55 66 100 183 250 100 10 336 336 345 348 354 358 2 4 7 358 333 311 301 301 298 289 305 315 341 15 11 36 48 346 304 49 31 17 0 334 340 359 12 353 326 324 335 331 319 302 295 318 309 289 306 343 25 23 7 353 345 148 155 160 157
49 54 57 55 46 50 60 67 64 59 56 57 73 79 72 63 53 41 26 22 23 191 179 138 46 26 27 49 80 84 69 56 358 336 335 342 344 346 356 359 358 5 0 354 350 345 348 335 344 345 326 356 16 17 17 359 296 297 10 17 12 347 323 338 358 357 339 320 323 324 306 299 297 307 341 305 300 339 15 35 23 10 8 21 127 149 151 144
49 56 54 42 33 47 63 66 61 62 66 73 80 77 73 60 54 43 27 29 49 147 195 221 316 337 335 290 205 75 55 14 346 341 336 339 343 342 351 359 358 1 7 15 2 350 351 358 16 347 332 47 1 357 0 318 184 33 352 353 340 319 332 353 359 351 334 322 323 318 307 309 317 327 317 312 354 28 31 29 25 22 34 63 117 136 138 132
63 57 42 35 39 58 67 69 73 75 76 81 79 72 69 55 69 52 35 51 75 85 113 200 308 327 335 271 265 64 32 347 339 341 339 340 345 351 354 0 3 2 12 22 10 8 14 16 24 357 10 61 353 354 349 318 70 35 335 328 315 314 2 5 5 0 338 345 343 329 317 321 11 347 320 34 37 31 26 26 27 32 55 73 103 119 123 117
71 54 43 53 63 71 72 76 80 77 78 77 72 64 65 79 91 61 55 84 90 81 74 66 58 27 356 277 261 72 13 342 344 344 347 350 355 2 2 12 16 6 16 33 28 26 32 29 17 348 354 40 339 345 336 328 24 321 300 300 294 313 32 13 21 10 353 36 360 332 315 321 34 354 4 53 35 15 16 23 31 39 61 70 92 104 105 105
64 57 65 74 75 71 65 69 69 70 72 67 73 73 82 107 108 78 81 98 90 70 54 51 64 59 55 53 63 62 360 341 349 352 359 4 12 16 13 32 33 12 15 47 47 33 37 33 8 346 332 336 323 323 101 45 306 284 294 276 258 231 86 27 25 10 359 50 2 327 305 303 110 74 31 35 15 10 3 17 42 47 67 76 92 96 97 99
63 69 82 83 70 55 46 49 49 58 72 83 94 88 89 108 122 108 99 101 61 25 10 9 60 65 56 57 57 41 352 345 348 353 4 10 14 22 26 43 46 27 19 53 64 43 44 11 7 47 31 301 306 348 106 139 276 276 301 277 218 168 144 19 21 6 360 36 350 328 303 285 112 65 38 22 6 1 354 29 50 51 72 82 94 94 95 96
71 82 89 77 48 30 23 28 43 74 96 104 100 86 80 90 118 121 109 108 67 54 57 60 72 38 17 57 64 25 3 4 3 359 11 20 351 14 33 44 57 50 43 68 86 72 65 20 32 70 22 319 355 11 124 225 252 278 284 272 5 78 168 14 18 4 7 47 340 334 330 16 47 60 39 14 7 358 0 46 52 58 78 84 93 94 94 91
81 87 81 53 27 16 14 32 76 105 113 110 96 76 68 76 95 94 94 102 68 61 65 66 72 49 50 86 105 20 14 17 15 5 13 25 6 11 38 41 60 61 63 81 96 95 86 32 65 99 34 2 44 250 220 199 243 348 341 248 3 3 343 2 20 10 9 20 342 338 338 348 12 52 38 17 15 5 16 52 54 64 80 88 97 97 93 87
82 78 59 39 32 27 37 71 98 113 115 113 94 70 68 79 88 86 84 68 36 27 3 18 3 342 81 98 94 5 13 18 14 5 7 16 18 17 12 17 58 54 63 81 94 95 85 353 59 57 26 19 247 272 231 168 35 17 8 320 3 359 327 348 55 34 4 355 350 341 327 331 2 42 36 27 20 12 29 54 58 70 85 93 98 96 93 91
76 65 50 54 74 85 95 101 101 102 95 82 70 66 142 104 91 75 63 43 39 53 51 7 331 326 61 72 0 352 10 11 4 2 4 4 7 357 339 314 158 22 65 79 93 100 65 58 70 356 16 26 357 348 2 39 10 15 8 331 342 346 327 341 85 61 3 351 346 340 328 322 3 40 38 30 20 20 41 55 65 75 86 92 96 97 95 94
69 58 53 78 101 99 100 102 99 96 87 77 70 70 86 96 274 322 334 5 50 54 59 37 344 339 72 36 347 347 354 354 355 1 0 355 360 358 343 330 133 206 183 122 118 129 303 51 153 280 32 32 17 10 23 18 347 348 355 329 328 338 329 334 11 35 356 347 336 332 321 316 2 42 37 28 21 29 47 53 69 77 83 91 95 97 92 90
64 53 51 90 123 117 108 103 101 99 89 80 71 74 78 70 64 53 33 20 331 0 53 24 356 138 84 24 353 336 331 330 348 360 358 358 1 358 357 10 40 197 201 181 54 5 335 321 56 60 37 28 27 24 27 4 329 325 334 326 325 330 332 336 347 9 351 337 327 331 320 321 18 47 36 28 23 37 55 59 73 79 83 91 89 87 84 83
59 45 46 78 135 161 162 149 142 135 108 53 35 61 79 71 68 59 47 44 39 24 62 0 355 139 49 13 346 328 322 309 345 6 2 1 343 319 330 327 327 180 207 178 36 6 345 39 42 42 29 18 21 22 11 334 312 310 315 312 310 314 325 334 342 26 359 330 324 337 324 332 42 50 35 30 26 45 64 69 78 81 84 87 81 81 78 73
52 40 45 60 93 163 206 221 229 233 253 269 296 307 244 151 77 52 38 43 52 43 53 16 9 59 30 359 343 339 334 279 0 16 6 356 323 294 334 331 37 60 29 39 40 2 328 51 51 34 20 7 7 359 335 318 300 294 302 306 308 311 320 330 339 53 33 329 318 334 333 5 65 56 41 37 36 53 61 69 78 81 84 83 80 82 77 68
43 38 40 44 58 76 180 234 248 246 253 257 263 289 290 336 44 101 60 60 62 25 54 49 6 62 31 335 343 348 345 224 10 15 8 1 329 281 350 356 70 67 38 277 24 311 30 53 52 23 5 337 334 319 312 312 300 294 301 318 326 332 323 320 324 318 347 324 310 330 337 47 82 64 53 47 44 53 57 71 82 85 89 88 87 81 53 32
36 34 33 33 40 46 53 51 324 236 239 252 249 19 50 52 110 133 148 92 78 6 45 61 23 63 31 340 350 340 328 357 8 13 7 4 11 18 348 6 69 57 31 263 230 113 62 55 38 6 344 306 277 271 320 312 287 295 325 335 335 341 325 308 300 315 320 312 304 324 325 82 94 74 64 57 57 63 60 72 83 89 93 86 74 53 11 356
26 27 24 22 27 36 44 55 60 73 103 104 93 95 100 104 119 133 225 102 95 7 28 43 37 33 18 32 358 341 12 27 0 8 3 358 18 27 337 22 68 56 35 42 52 63 58 48 22 344 311 311 304 7 354 330 287 321 351 348 331 328 326 307 311 320 314 308 299 306 308 115 112 95 80 69 71 79 75 83 93 91 91 80 41 15 354 345
15 14 14 18 23 36 48 51 58 79 99 108 102 107 120 114 109 83 320 120 99 70 65 47 40 29 21 20 345 341 49 47 9 1 358 358 358 326 331 18 52 63 51 50 71 83 67 39 0 313 275 313 340 17 8 348 344 5 19 355 323 314 317 309 311 316 310 309 349 306 304 150 144 123 96 90 85 88 95 103 106 97 86 53 10 357 345 339
357 358 5 15 16 25 60 47 67 101 102 100 101 112 120 108 94 334 310 219 92 95 127 163 118 34 14 347 351 344 24 58 34 359 351 2 347 304 85 347 348 51 52 29 76 88 63 50 337 312 289 341 358 16 15 355 336 345 62 345 315 306 309 306 309 318 313 1 70 355 324 323 142 132 114 115 105 104 121 121 105 97 63 13 356 347 342 340
340 347 354 3 9 11 318 47 107 121 104 94 114 124 110 79 58 358 292 237 81 46 351 112 152 19 9 349 356 322 259 40 26 355 355 5 345 260 45 5 16 52 39 6 68 93 58 76 270 303 313 2 15 25 24 4 324 329 7 327 309 303 304 305 312 320 316 322 15 40 327 320 124 140 133 132 133 132 137 128 100 68 14 356 349 344 344 338
334 336 343 352 1 0 340 134 147 145 108 142 144 130 103 84 82 42 284 236 113 350 349 29 346 12 15 348 350 299 220 343 324 18 14 359 340 247 282 42 80 62 59 63 56 75 37 16 343 316 322 16 13 1 12 358 310 324 335 315 305 304 303 307 312 297 298 316 305 153 317 316 311 145 146 153 149 147 148 126 86 14 353 347 346 344 338 330
339 335 340 346 352 2 15 130 148 163 140 155 156 148 146 121 63 333 276 241 51 323 355 34 4 19 7 340 13 68 42 326 329 19 1 349 347 286 123 64 71 66 68 242 8 71 24 12 13 338 359 26 356 339 348 320 287 311 314 305 297 297 298 298 291 276 303 316 265 75 359 320 303 126 160 181 175 159 171 145 6 345 345 341 340 336 330 327
351 345 347 345 349 45 131 146 145 153 140 146 151 143 146 89 266 263 261 239 21 63 22 10 6 6 337 315 35 55 27 359 20 345 336 359 23 12 72 58 92 83 26 357 56 103 92 34 347 328 20 16 334 333 326 251 273 299 299 294 281 268 270 274 266 269 291 293 313 11 4 332 306 316 188 203 214 214 263 296 337 346 342 334 335 333 328 329
7 2 0 345 265 129 120 109 123 138 135 140 137 116 127 250 241 238 237 244 11 74 310 356 321 318 328 311 58 34 21 28 3 323 340 38 27 32 79 271 245 221 263 79 84 112 120 105 265 4 42 344 314 310 260 224 265 286 295 299 289 250 228 235 244 258 274 298 5 10 352 331 310 307 183 204 242 311 299 311 339 342 335 335 337 335 333 332
23 22 16 9 209 199 121 106 128 136 131 132 128 114 188 225 247 256 250 220 19 16 294 19 17 327 351 31 49 10 10 26 359 352 16 35 18 23 36 286 274 254 218 96 93 127 146 173 163 67 18 328 317 299 206 212 261 289 314 323 324 274 200 217 232 244 302 324 358 354 336 322 296 293 115 151 158 162 232 308 326 322 327 334 335 334 335 333
29 24 20 27 62 193 156 138 136 136 132 130 139 194 250 229 232 242 56 213 265 15 38 37 19 354 355 44 35 5 354 8 6 5 5 16 33 32 33 28 353 324 60 27 8 149 151 138 105 120 186 342 334 327 158 198 273 332 349 345 352 358 351 334 331 341 316 309 332 336 333 311 278 300 115 162 171 169 189 337 322 314 324 330 329 330 334 334
28 22 19 33 60 98 119 132 140 141 135 138 180 233 260 257 241 106 76 316 326 26 37 288 335 320 288 285 27 7 339 339 355 358 341 353 45 62 61 45 11 335 352 353 334 333 96 114 113 151 124 5 347 354 10 314 343 7 4 1 11 9 356 340 338 339 310 296 318 322 317 289 288 320 126 161 171 172 177 305 308 317 329 328 328 331 333 336
20 20 23 42 68 93 110 125 139 143 143 176 225 229 253 260 337 93 144 49 51 63 179 292 277 273 310 56 31 346 312 106 354 351 351 2 40 55 60 41 20 352 293 311 1 345 324 96 33 356 25 10 16 36 349 312 339 24 18 10 19 26 355 320 324 328 306 300 311 312 298 292 312 350 128 141 148 168 199 258 311 339 339 327 332 335 333 336
4 16 26 45 60 79 104 129 144 151 167 225 233 229 252 252 114 164 184 88 100 183 162 149 254 246 131 104 108 345 348 65 15 2 19 31 37 33 21 12 12 1 315 320 35 336 293 252 72 47 43 31 45 90 290 294 310 22 24 14 11 13 292 275 286 281 281 292 304 309 291 295 323 96 114 131 162 200 238 272 338 358 333 328 337 337 334 334
352 3 25 38 38 48 98 141 153 158 200 246 236 233 273 38 61 27 34 70 129 179 182 189 260 280 213 161 123 103 75 341 325 333 57 60 54 42 23 15 11 1 353 359 21 353 312 274 125 110 71 55 63 90 13 343 320 332 3 1 352 338 261 275 283 272 272 283 295 313 306 308 336 107 140 163 211 257 286 325 357 341 325 333 338 336 335 332
345 0 32 27 18 22 103 168 169 169 230 256 252 277 43 54 11 14 33 17 329 323 232 211 340 341 294 221 87 49 16 335 287 291 113 102 74 50 18 46 40 357 4 355 1 81 314 293 161 155 116 97 100 74 64 27 325 326 12 343 322 258 211 280 303 305 305 298 298 315 312 310 318 322 158 270 310 318 329 346 343 326 328 335 333 333 335 329
324 183 56 18 7 10 126 151 156 180 237 231 108 79 48 54 38 31 24 334 278 241 246 260 22 18 313 310 35 15 344 342 331 336 70 106 60 54 356 31 82 15 359 304 297 109 280 288 159 166 133 132 178 188 86 53 24 66 95 359 334 313 279 307 322 324 321 315 308 313 316 305 303 327 337 328 333 340 341 334 326 329 334 332 330 334 333 329
288 225 141 13 1 15 112 142 163 226 238 197 135 128 97 82 88 47 358 328 268 256 293 32 4 2 272 330 356 25 353 1 353 335 41 17 6 65 358 358 84 41 12 297 311 38 268 293 78 192 164 147 183 229 316 47 71 120 141 76 44 301 291 312 323 298 300 312 309 312 317 307 318 353 331 329 345 352 331 323 325 332 334 330 331 334 331 331
302 241 130 7 7 81 91 113 183 305 257 140 98 118 97 112 123 93 356 325 281 281 38 104 174 213 138 342 329 1 10 358 343 333 18 26 353 102 75 11 330 15 9 263 277 333 270 261 305 279 167 158 186 9 11 7 56 147 291 20 13 306 253 246 249 223 280 303 306 314 308 289 329 359 326 328 344 341 326 329 327 331 333 330 329 328 329 332
288 227 60 358 2 131 93 54 51 37 83 85 79 95 78 128 130 120 137 271 294 286 14 28 54 63 102 133 219 167 303 300 316 334 355 84 351 33 71 16 336 350 309 238 235 343 321 254 287 305 299 290 48 55 41 31 54 25 348 2 351 340 326 302 297 147 200 278 288 304 296 287 315 359 295 322 334 332 332 333 329 330 331 327 326 328 330 333
276 215 15 354 342 180 190 51 60 15 87 95 68 87 66 121 134 115 154 194 256 253 220 24 45 62 71 1 39 160 247 263 233 309 294 90 31 31 66 21 341 324 292 284 83 49 339 276 275 288 297 28 70 69 57 66 80 69 25 283 210 213 342 317 317 319 289 272 272 279 277 282 310 130 281 323 334 332 331 332 329 330 329 326 327 330 331 331
292 171 15 1 73 171 298 77 106 30 73 99 42 79 56 40 130 119 193 195 221 263 192 145 45 33 50 25 28 190 230 254 239 290 205 134 68 55 60 10 319 270 256 273 104 115 230 263 277 281 267 114 98 94 91 73 69 146 175 191 190 180 255 283 300 319 307 281 289 294 274 272 315 334 307 326 334 330 331 334 330 327 327 327 327 329 331 330
7 126 17 7 57 185 291 69 137 107 105 133 126 105 70 357 90 128 212 190 208 259 183 119 83 76 83 50 260 180 201 255 223 127 45 198 110 81 51 282 280 283 301 358 20 27 262 254 287 306 312 56 102 110 133 124 276 247 166 147 156 155 171 229 244 261 268 262 279 296 276 268 299 315 314 325 330 329 335 336 330 327 326 327 327 329 331 328
197 199 124 31 44 79 312 328 133 131 137 139 123 132 156 107 75 326 289 120 347 303 278 99 80 95 104 113 188 150 165 273 264 90 63 98 130 137 192 236 264 292 41 25 1 322 283 290 295 323 339 335 322 316 320 319 296 284 146 148 165 167 169 204 269 257 261 273 277 276 271 279 297 306 312 322 326 330 335 332 330 330 328 326 326 329 331 327
249 266 183 90 48 64 77 354 86 128 144 151 135 151 183 140 130 177 334 128 161 305 40 101 108 147 139 178 216 198 190 196 6 326 237 189 141 127 159 192 239 289 60 34 347 298 272 268 259 268 286 293 295 294 302 310 297 287 269 189 175 169 177 204 262 259 278 298 281 261 266 287 299 304 313 321 326 331 332 330 331 330 327 326 326 328 328 325
261 293 30 179 71 81 89 75 85 113 137 173 155 149 161 146 138 150 257 309 149 206 340 100 159 200 170 177 224 218 190 181 174 211 258 208 112 114 154 181 209 210 168 130 212 249 275 262 242 253 254 259 274 281 287 294 282 277 282 258 185 162 171 191 222 246 278 301 279 269 282 293 296 301 312 322 330 332 328 328 329 326 323 324 325 325 325 325
307 66 47 331 297 94 90 78 90 97 99 95 98 142 155 156 158 171 177 102 167 236 230 159 204 219 200 189 225 217 194 202 202 183 172 215 151 148 170 189 185 179 178 176 168 206 291 280 127 211 266 268 272 272 273 274 268 267 274 270 244 196 181 194 223 240 252 257 261 280 295 293 290 298 309 319 329 328 324 324 323 320 321 323 324 324 326 328
55 96 85 318 346 63 33 19 95 116 105 90 131 173 177 176 172 156 124 144 186 215 232 243 212 201 196 198 225 234 216 222 235 209 160 164 188 190 196 200 171 175 192 194 155 165 280 270 94 342 284 283 275 265 259 257 261 265 265 266 265 243 212 213 233 242 244 248 258 276 287 286 285 293 303 315 323 320 320 321 318 317 322 324 323 324 329 330
225 126 123 137 99 79 44 35 132 146 124 123 198 172 192 197 179 148 152 194 189 168 191 240 196 158 168 194 216 243 272 314 300 245 175 168 194 220 224 220 140 164 201 204 145 184 259 7 69 22 287 290 274 240 239 249 259 269 271 267 264 258 242 235 242 247 248 252 260 274 283 283 282 292 305 315 316 313 316 319 317 319 324 323 322 328 331 328
21 61 150 147 108 92 39 108 164 240 171 203 206 151 192 208 177 154 148 179 325 164 184 206 154 131 131 212 226 250 334 10 5 80 168 191 218 199 214 303 120 160 183 185 173 204 226 280 17 280 298 299 209 189 267 282 273 269 271 264 248 242 240 232 231 234 238 253 270 278 278 279 291 308 312 310 310 312 316 318 317 320 325 325 328 332 330 324
125 85 204 290 71 157 246 132 195 257 199 155 99 132 183 183 152 156 159 152 140 78 354 271 151 157 199 212 223 274 34 55 62 59 66 253 16 51 63 24 67 173 173 165 182 258 257 287 308 326 302 296 240 295 305 307 295 266 251 238 226 224 232 238 239 240 241 251 272 276 268 280 301 311 308 307 312 315 315 318 318 319 322 326 331 330 325 321
Height
826 826 825 824 823 823 822 821 820 820 820 821 821 821 820 820 819 819 819 818 819 819 819 818 818 818 818 818 817 817 815 815 816 813 814 819 820 818 816 813 811 810 810 809 808 807 805 805 804 805 804 803 804 805 807 807 807 807 807 811 809 808 811 812 811 810 810 809 807 807 810 815 813 813 815 817 815 812 812 812 812 813 815 817 820 821 822 824
826 826 825 824 823 823 822 821 821 821 821 822 822 822 821 821 820 819 819 819 819 819 819 818 818 817 817 817 817 817 815 815 815 814 817 820 819 817 815 813 812 811 810 809 808 807 804 804 804 804 803 803 804 806 807 807 808 808 809 811 810 810 811 810 810 810 811 813 812 810 812 816 815 813 815 817 813 810 811 807 809 813 813 817 820 822 823 825
827 826 825 825 824 823 822 821 822 822 822 823 822 822 821 821 820 820 819 819 819 819 818 818 817 817 817 817 817 817 816 814 814 817 820 820 818 817 815 813 813 812 811 810 809 808 806 806 805 804 803 804 805 806 808 809 809 810 813 813 810 812 812 809 810 813 813 815 816 815 816 817 815 815 816 818 814 811 809 804 807 812 810 814 820 821 824 826
827 826 826 825 824 823 823 822 822 823 823 823 823 822 822 821 821 820 820 820 819 819 819 818 817 816 816 816 816 817 816 815 818 822 821 820 818 817 816 814 813 812 812 811 810 809 808 806 805 804 805 806 806 807 809 811 812 813 814 814 812 813 814 812 813 817 817 818 820 818 817 818 816 817 818 817 817 812 808 808 811 814 811 813 819 821 825 827
827 826 825 824 824 823 823 823 823 823 823 823 823 822 822 822 821 821 821 820 820 820 819 818 818 817 816 815 816 817 816 819 824 824 822 820 818 817 816 815 814 813 812 811 810 810 808 806 805 805 807 807 807 808 811 813 815 815 812 813 814 815 817 815 815 821 823 821 821 819 819 820 818 818 816 817 820 814 810 813 815 817 816 816 819 822 826 828
826 825 825 825 824 824 824 824 824 823 824 823 823 823 823 822 822 822 821 821 820 820 820 819 819 818 817 816 816 816 817 825 828 824 823 821 819 818 817 816 815 814 813 812 810 809 807 805 805 808 808 808 810 812 814 815 817 817 813 813 816 819 820 816 818 824 825 823 822 821 821 821 819 816 815 817 819 814 813 816 818 820 820 819 821 824 827 830
827 826 825 825 825 825 824 824 824 824 824 824 824 823 823 823 823 822 822 821 820 820 820 819 819 819 818 817 817 817 819 826 828 825 823 821 820 819 817 817 815 815 814 812 811 808 808 807 807 810 810 811 814 815 816 816 817 820 818 817 818 820 820 818 821 826 826 825 823 821 822 820 817 817 817 818 816 814 817 820 822 823 822 822 824 826 829 832
827 826 826 826 826 825 825 824 824 824 824 824 824 824 824 824 823 823 822 821 820 819 820 820 820 819 818 818 817 818 822 827 827 825 823 821 821 819 818 818 816 816 815 814 813 809 809 810 810 811 812 815 816 816 818 817 818 821 821 820 819 818 817 819 823 826 825 824 823 822 821 816 814 818 820 818 816 818 821 822 823 824 824 824 826 829 832 835
827 827 827 826 826 825 825 825 824 824 825 824 824 824 824 824 824 824 823 822 821 820 820 820 820 819 819 818 815 819 828 830 828 826 823 822 821 819 819 818 817 816 815 815 813 811 810 812 813 812 814 816 816 818 819 818 821 825 823 821 820 816 817 821 822 823 824 823 823 823 819 813 816 820 819 819 820 821 822 823 824 824 825 826 829 832 835 839
828 828 827 827 826 826 825 825 825 825 825 825 825 825 825 825 825 825 824 823 822 821 821 821 821 819 819 817 815 824 832 830 828 827 823 822 821 820 819 818 818 817 816 815 815 814 813 814 814 813 814 815 816 819 819 820 824 825 824 823 821 818 819 822 821 820 821 823 824 824 819 814 817 821 820 822 823 822 822 823 825 825 828 830 832 835 838 843
829 828 828 827 827 827 826 826 826 825 826 825 825 825 825 825 825 825 825 824 823 822 822 822 821 820 820 818 820 829 832 829 829 826 824 823 821 821 820 819 818 818 816 816 817 817 816 816 814 813 815 817 817 818 820 823 824 822 823 824 820 819 821 820 820 820 820 824 825 823 819 814 818 823 824 825 824 822 822 825 828 829 831 834 836 839 843 847
829 829 828 828 827 827 826 826 826 826 826 826 826 826 825 826 825 826 825 825 824 823 823 822 822 822 821 821 826 832 832 830 829 826 824 823 822 822 820 820 819 818 817 816 818 818 817 817 814 815 818 817 816 817 822 824 822 821 822 821 817 816 821 820 820 820 819 825 825 820 816 812 817 825 826 825 824 823 822 825 830 833 835 837 839 843 847 850
830 829 829 828 828 827 827 827 826 826 826 826 826 826 826 826 826 826 826 826 825 824 824 822 823 822 822 825 831 833 831 830 829 827 825 823 823 822 821 821 820 819 818 817 819 818 818 817 816 817 819 816 816 820 823 823 820 820 820 819 815 816 819 818 819 821 821 826 825 823 821 813 815 825 827 826 825 825 823 826 833 836 839 841 843 847 850 853
830 830 829 829 829 828 827 827 827 827 827 827 827 827 827 826 826 826 826 826 825 825 824 823 824 823 824 829 832 831 831 830 828 827 825 823 823 822 822 822 821 820 819 819 819 819 819 818 816 817 818 818 820 823 822 820 818 816 819 819 819 824 822 816 819 824 825 827 823 826 827 817 815 824 829 827 827 828 826 829 836 839 841 844 847 850 853 856
831 830 830 830 829 828 828 827 827 827 827 827 827 827 827 827 827 827 826 826 826 825 825 824 824 823 825 830 831 831 830 829 829 828 825 824 823 822 823 822 822 821 820 820 819 819 819 818 818 819 819 818 819 820 815 814 813 814 824 827 825 830 826 817 822 827 828 827 823 826 829 821 817 824 830 830 830 830 829 833 839 841 844 847 850 853 857 860
831 831 830 830 830 829 829 828 828 828 828 828 827 827 827 827 827 827 827 827 826 825 825 825 825 823 827 831 831 830 831 830 830 829 827 825 824 823 823 822 822 821 821 821 819 820 819 818 822 823 820 819 819 815 810 816 820 819 829 834 830 833 831 822 823 826 827 827 825 826 830 823 818 827 833 834 835 834 833 837 842 844 847 850 854 857 860 862
832 831 831 831 831 830 830 829 829 829 829 829 828 828 828 828 828 827 827 827 827 827 826 827 825 824 829 832 832 831 832 832 831 829 828 826 825 824 822 821 822 821 821 820 819 819 819 820 824 824 822 824 825 819 819 834 838 832 834 835 831 833 833 827 824 824 825 829 829 825 826 822 821 830 836 838 839 837 837 841 844 847 850 853 856 859 862 864
832 832 832 832 832 831 831 830 830 830 830 830 830 829 828 829 829 828 828 827 826 826 826 827 826 828 834 834 835 836 834 833 831 830 828 826 825 824 823 822 821 821 820 819 819 819 819 819 820 824 828 831 833 833 839 849 850 845 843 841 836 834 833 829 827 827 826 831 830 824 823 821 824 835 840 843 843 840 842 844 846 850 853 855 858 861 864 866
833 833 832 832 832 831 831 831 831 830 830 830 830 830 830 829 829 829 829 828 829 832 834 836 834 837 841 839 838 837 834 834 832 831 829 827 825 824 823 822 821 820 819 820 822 823 822 822 824 832 840 844 846 849 851 852 850 850 848 847 844 838 833 827 826 830 833 833 828 824 824 823 831 842 845 848 847 844 845 846 849 852 854 858 861 865 867 868
834 833 833 832 832 832 831 831 831 831 830 830 831 830 830 829 831 835 836 835 839 843 844 844 842 842 842 840 840 836 834 834 832 832 830 827 825 824 822 821 819 820 824 826 828 827 825 832 842 848 852 853 853 853 853 851 850 850 848 846 842 837 832 826 826 831 834 836 828 823 823 827 840 849 851 854 851 848 848 849 853 855 858 862 865 867 868 868
834 834 833 833 832 832 831 831 831 830 830 830 830 830 831 831 833 839 841 843 846 847 846 846 844 843 843 843 842 839 837 834 832 832 830 827 825 823 823 822 822 826 831 834 833 828 828 841 853 855 855 856 856 855 854 852 851 848 845 842 837 835 834 828 829 830 831 835 828 821 823 832 847 853 855 858 856 855 853 854 857 859 862 865 866 868 867 867
834 834 833 833 833 832 832 831 830 830 830 830 831 831 832 832 834 835 837 842 848 847 846 846 844 844 844 844 843 842 840 837 834 832 832 829 824 826 829 826 828 832 831 830 830 828 835 850 856 855 855 856 856 855 853 851 849 845 839 840 840 839 838 832 828 828 829 830 827 823 824 836 852 857 858 861 861 861 859 858 861 862 865 867 866 868 867 868
834 834 834 834 833 832 832 831 831 831 830 831 831 832 833 834 835 835 834 838 846 848 846 845 845 845 844 844 845 842 840 842 840 836 837 835 832 834 835 831 832 835 832 829 829 832 843 853 856 857 858 856 852 851 852 847 841 840 840 844 846 843 844 839 829 828 828 829 831 827 824 836 853 856 859 865 863 863 863 863 866 865 867 868 866 867 869 870
835 835 834 834 833 833 832 832 832 831 831 832 833 833 835 835 835 836 835 837 843 847 847 847 847 847 847 847 846 844 842 845 844 843 843 842 839 838 839 839 837 837 841 840 838 843 852 856 858 860 858 855 850 848 855 851 839 839 846 850 849 845 847 844 835 830 825 828 836 829 819 827 842 849 857 865 864 863 866 866 867 867 867 867 866 867 869 870
836 835 835 834 834 833 833 832 832 832 833 834 834 835 835 836 836 836 836 838 843 846 847 848 847 847 849 848 848 847 845 845 847 848 847 846 845 841 840 842 839 841 848 846 843 847 854 859 861 859 854 851 850 852 859 859 846 843 848 851 848 845 846 843 840 834 824 825 831 830 824 822 830 847 857 861 864 864 867 867 866 867 866 865 867 869 869 869
836 835 835 834 834 834 833 833 834 834 835 835 836 836 836 836 836 836 836 839 844 849 849 847 848 849 849 848 848 848 847 847 849 849 848 848 848 845 841 841 841 846 851 849 848 850 855 859 860 858 854 849 850 855 861 862 855 846 844 847 845 844 846 843 841 839 830 825 825 830 836 828 823 843 856 858 864 866 865 866 865 864 864 865 869 869 868 868
836 836 835 834 834 834 833 833 834 835 835 836 837 836 837 837 836 837 840 844 849 854 851 847 849 852 851 850 847 847 850 851 849 848 849 849 848 845 843 843 844 848 855 854 849 853 856 856 858 856 851 851 855 858 860 864 861 849 844 846 843 842 843 841 842 840 831 828 827 827 835 829 818 835 855 855 859 864 862 864 863 863 865 866 869 868 866 866
836 836 835 835 834 834 834 834 835 835 835 836 836 837 837 837 837 837 844 855 857 854 853 851 851 852 852 851 848 849 855 855 851 850 849 849 848 844 843 847 849 849 856 853 846 856 861 858 862 859 851 855 861 860 861 865 862 851 847 846 842 842 841 840 842 836 831 832 827 820 828 830 819 830 854 853 850 857 859 859 861 862 866 868 867 866 864 863
836 835 835 835 834 835 835 834 834 835 835 836 836 837 837 837 838 838 846 860 859 853 855 853 851 854 854 853 852 854 857 856 856 854 850 850 849 846 848 852 851 850 853 848 845 858 864 863 867 862 858 862 862 861 861 864 861 851 848 844 839 840 840 840 838 833 836 837 826 820 828 835 823 818 833 838 838 850 854 853 857 860 865 866 864 863 862 861
836 835 835 835 835 835 835 835 835 835 836 837 836 838 838 837 840 845 853 860 859 857 858 854 855 860 857 854 854 856 858 859 860 856 850 851 850 848 852 855 852 852 853 849 851 862 865 868 870 865 865 866 862 860 860 862 859 851 847 838 828 827 832 837 834 831 834 828 822 826 828 836 833 816 817 831 842 853 856 855 858 862 864 864 863 863 862 861
837 836 836 834 835 835 834 835 835 835 836 836 837 838 837 839 842 849 858 861 859 858 858 860 864 865 862 859 859 860 861 861 861 859 854 853 853 851 851 854 854 848 844 845 853 861 864 865 866 868 870 867 861 857 857 862 858 850 846 836 825 821 825 830 827 827 832 822 820 824 824 834 835 818 823 844 855 860 860 859 862 864 863 863 863 862 861 860
837 837 836 835 835 834 834 835 836 837 836 836 838 837 839 846 847 851 859 861 860 862 863 867 868 867 868 864 865 868 867 863 861 863 863 858 860 864 862 863 864 852 843 847 851 851 856 862 864 869 870 868 862 853 854 859 854 850 847 840 836 830 830 833 826 826 831 824 821 822 828 838 828 815 833 850 855 858 859 859 863 864 863 863 863 861 859 859
839 838 836 836 835 835 835 836 836 837 836 838 838 836 842 850 853 860 864 859 863 870 871 873 870 869 869 864 867 873 871 869 864 864 866 859 860 869 871 872 876 866 855 855 853 848 853 861 864 866 866 866 865 859 858 858 853 854 853 849 852 852 856 854 840 837 837 827 823 825 834 837 821 819 840 848 850 856 858 859 860 861 863 864 862 860 859 858
840 838 838 837 836 836 836 837 837 837 838 839 837 841 849 853 859 869 866 860 868 874 873 875 871 868 867 865 871 875 870 870 870 865 862 858 859 866 870 873 878 876 867 860 862 862 857 857 861 864 865 866 867 869 870 866 861 860 858 857 860 868 878 870 853 855 855 841 832 830 831 829 821 829 843 846 850 854 856 858 857 859 864 862 860 860 859 858
840 840 839 838 837 838 837 837 838 838 838 838 839 844 851 853 857 861 861 864 870 871 871 876 871 863 862 867 874 878 874 870 871 869 865 864 867 871 876 879 880 882 875 864 869 871 856 853 865 869 867 867 869 873 874 870 864 857 855 861 867 874 881 874 864 865 867 858 842 829 823 818 824 839 846 847 852 855 856 856 856 862 864 860 858 859 859 858
841 840 839 839 838 838 838 838 838 838 839 839 841 845 851 859 861 859 865 872 871 870 869 869 867 859 856 862 869 876 879 875 871 869 869 873 876 878 882 885 887 889 884 874 875 875 859 853 865 871 870 872 872 871 871 870 863 856 858 868 875 879 881 879 871 860 859 859 840 825 823 818 823 839 847 849 850 849 849 852 859 864 861 859 859 858 858 858
841 840 840 840 839 838 839 838 838 839 838 838 845 853 860 869 873 871 876 878 875 875 867 859 867 867 860 858 863 871 876 875 872 866 867 874 877 882 885 887 891 892 891 887 881 882 877 861 857 865 869 873 875 872 871 873 867 860 868 875 874 877 881 879 872 862 861 859 838 828 836 834 829 834 838 843 844 843 848 855 861 860 856 858 857 855 857 857
841 840 840 840 839 839 839 838 839 839 837 841 855 865 867 871 878 880 881 880 879 876 864 857 868 875 868 861 864 875 876 869 867 864 865 869 875 886 888 886 892 893 894 896 884 883 886 867 855 861 865 871 878 874 869 872 871 868 874 878 876 880 879 872 873 875 876 870 849 836 841 838 830 830 835 838 841 846 854 858 859 855 854 856 852 851 854 855
841 840 840 841 840 839 839 839 839 838 837 844 855 864 869 874 881 884 884 884 880 872 864 864 872 875 873 870 870 878 880 872 867 865 866 869 875 887 892 888 892 893 893 896 886 881 884 872 859 859 863 868 871 867 862 865 871 872 873 876 880 882 880 879 883 884 882 880 868 853 846 834 824 831 840 841 843 852 856 855 855 852 852 852 850 850 852 854
841 840 840 841 840 839 840 839 839 840 844 851 857 864 872 877 882 886 887 886 881 873 867 867 872 871 873 878 877 877 880 877 873 868 867 873 877 885 894 893 892 893 894 896 890 883 882 877 864 855 857 860 860 861 860 861 868 870 871 880 885 883 880 883 886 884 885 888 883 874 859 833 821 832 841 840 843 849 850 848 848 848 849 850 850 851 851 852
841 840 840 840 840 840 839 840 846 851 854 859 863 869 876 877 880 885 888 888 884 879 875 872 871 870 871 875 877 878 878 875 874 871 869 875 877 880 895 902 898 897 895 890 887 886 882 878 871 861 853 852 859 869 870 868 871 871 874 882 887 887 886 884 881 883 890 891 887 890 877 843 825 834 838 835 836 840 842 844 844 845 848 848 849 850 850 851
840 841 841 840 840 839 839 846 859 859 856 864 870 875 878 878 879 883 885 887 884 879 879 877 873 873 874 873 875 878 878 873 873 873 872 876 879 884 899 909 907 905 899 887 886 894 892 883 877 867 857 859 871 878 876 874 875 876 880 883 885 890 891 887 883 882 889 889 883 890 883 847 826 833 834 829 830 832 836 842 845 846 846 847 848 848 849 851
840 840 841 840 840 840 841 850 860 862 865 876 879 879 881 879 879 883 884 882 881 877 876 876 877 877 877 878 878 877 878 876 873 874 875 877 886 900 907 910 909 905 898 888 887 896 894 884 877 863 853 865 880 882 880 883 882 879 882 885 887 891 892 892 892 894 897 891 883 889 882 843 820 826 828 825 828 830 834 840 844 845 845 847 848 847 849 850
841 841 841 841 840 840 840 845 854 864 873 878 878 879 882 881 879 881 880 878 879 877 873 874 879 879 880 883 880 878 880 878 874 879 881 877 891 911 913 911 911 902 896 894 894 897 890 878 874 864 852 857 867 869 874 881 880 872 876 887 890 894 902 901 900 905 904 888 882 891 878 837 818 823 823 824 827 830 836 842 844 844 844 845 847 847 849 850
842 842 842 841 841 841 844 847 850 861 872 873 874 878 878 879 883 883 880 880 882 880 875 877 881 880 882 885 882 882 885 881 877 884 887 883 896 914 915 914 914 904 902 907 907 903 891 876 873 869 862 859 858 857 859 865 868 864 872 892 897 898 905 900 894 899 893 877 873 878 860 829 819 824 825 827 829 831 837 841 841 843 844 844 845 846 848 849
841 842 842 841 842 844 850 854 851 856 866 867 869 875 873 874 881 885 883 881 884 883 878 879 883 881 882 884 880 879 882 884 884 886 886 884 892 907 913 916 915 909 909 914 913 907 894 882 876 870 868 868 864 861 860 861 865 863 867 883 895 901 903 898 894 887 876 871 870 863 851 836 824 824 826 828 830 834 838 838 838 841 842 843 845 847 848 849
841 843 845 844 844 845 849 854 852 854 860 859 862 871 872 871 877 882 883 882 883 884 879 879 882 879 877 880 877 874 878 883 886 889 889 888 892 904 911 913 913 912 914 914 914 908 892 880 880 879 875 873 868 866 865 866 869 866 864 872 886 899 904 902 895 877 867 876 868 845 845 846 832 827 829 828 831 836 836 836 838 839 840 842 844 846 848 848
844 847 853 853 849 848 849 852 855 857 858 859 864 870 870 870 873 876 879 883 884 883 878 877 879 876 874 876 873 873 877 879 881 887 891 893 896 899 903 907 908 910 912 910 909 909 893 878 886 892 884 877 874 870 867 867 866 864 864 867 873 887 898 899 891 876 873 880 864 841 846 850 837 831 831 830 833 836 835 836 838 839 839 841 843 845 847 846
849 850 856 858 855 857 861 860 859 858 858 861 866 869 867 867 869 871 874 879 880 880 877 872 871 872 873 876 875 872 873 874 876 882 887 891 895 894 892 896 901 905 906 902 906 912 896 879 890 900 891 878 870 863 862 865 864 863 864 865 864 871 881 885 883 877 876 873 860 850 852 848 837 832 830 830 834 836 835 836 838 838 839 840 843 845 845 844
846 845 852 855 856 862 867 864 859 856 858 861 861 864 866 863 864 870 873 872 871 874 878 872 868 872 876 877 877 873 872 873 874 880 885 887 889 891 885 882 890 902 903 899 906 911 897 885 893 901 891 869 856 857 862 862 862 864 864 863 863 863 867 874 875 874 874 869 859 856 855 845 834 829 828 830 834 835 835 836 837 837 838 839 842 844 844 843
844 843 845 846 852 862 863 861 860 853 852 855 855 860 865 859 859 866 869 873 872 871 874 871 868 875 881 880 878 874 875 878 878 881 886 884 883 886 885 880 886 897 900 901 905 905 898 889 890 894 883 859 851 859 859 856 864 873 871 866 863 861 862 864 864 864 865 863 857 857 855 840 825 823 827 830 832 834 833 834 836 836 837 839 841 843 844 842
844 844 844 842 849 862 861 858 859 854 850 854 856 861 864 860 860 863 864 872 877 875 876 873 869 872 876 878 880 880 881 884 884 885 887 886 885 886 886 886 887 889 894 901 904 903 901 891 884 889 880 855 848 854 854 856 859 854 852 852 849 850 853 853 852 851 852 854 854 852 843 828 821 824 827 828 830 833 833 833 834 833 835 838 842 843 843 842